Location: Bergnershof
(48.9468°N, 10.9431°E)
Time: 05:14:35
(UTC+00:00)

Cosmos 2369 Rocket - Pass Details

Date: 03 March 2021
Orbit: 829 x 852 km, 71.0° (Epoch: 11 April)

Event Time Altitude Azimuth Distance (km) Brightness Sun altitude
Rises 21:28:54 0° 333° (NNW) 3,384 6.2 -40.6°
Reaches altitude 10° 21:31:24 10° 338° (NNW) 2,448 5.2 -40.9°
Enters shadow 21:32:56 19° 343° (NNW) 1,898 4.5 -41.1°
